Regional Weather Roundup
Issued by NWS

Home | Current Version | Previous Version | Graphics & Text | Print | Product List | Glossary Off
Versions: 1 2 3 4 5 6 7 8 9 10 11 12 13 14 15 16 17 18 19 20 21 22 23 24 25 26 27 28 29 30 31 32 33 34 35 36 37 38 39 40 41 42 43 44 45 46 47 48 49 50

000
ASUS43 KLSX 180407
RWRMO

WEATHER SUMMARY FOR MISSOURI
NATIONAL WEATHER SERVICE SPRINGFIELD MO
1100 PM CDT FRI APR 17 2015

NOTE: "FAIR" INDICATES FEW OR NO CLOUDS BELOW 12,000 FEET WITH NO
       SIGNIFICANT WEATHER AND/OR OBSTRUCTIONS TO VISIBILITY.
       CURRENT SKY AND/OR WEATHER CONDITIONS ARE NOT AVAILABLE FOR
       CHILLICOTHE AND FARMINGTON.

MOZ001>031-035>038-043-044-053-054-180500-
...NORTHERN AND WESTERN MISSOURI...

CITY           SKY/WX    TMP DP  RH WIND       PRES   REMARKS
KANSAS CTY INT CLOUDY    63  58  83 E3        29.99S
KANSAS C DTWN  CLOUDY    66  60  81 CALM      29.97S
LEE`S SUMMIT   MOCLDY    66  57  72 CALM      29.99R
ST JOSEPH      CLOUDY    63  56  78 CALM      29.98S
CHILLICOTHE      N/A     63  58  83 CALM      29.99F
KIRKSVILLE     PTCLDY    65  55  70 SE5       30.01S

$$
MOZ066>068-077>081-088>096-101>105-180500-
...SOUTHWEST MISSOURI...

CITY           SKY/WX    TMP DP  RH WIND       PRES   REMARKS
SPRINGFIELD    CLOUDY    67  59  75 S7        30.00S
JOPLIN         CLOUDY    69  60  73 SE3       29.97F

$$
MOZ032>034-039>042-045>050-055>058-069>072-180500-
...CENTRAL MISSOURI...

CITY           SKY/WX    TMP DP  RH WIND       PRES   REMARKS
COLUMBIA       PTCLDY    67  55  65 E9        29.99S
JEFFERSON CITY CLOUDY    72  55  55 E9        29.98S
ROLLA          PTCLDY    64  54  69 E7        30.00R
SEDALIA        CLOUDY    68  55  63 SE5       29.99S
WHITEMAN AFB   MOCLDY    64  56  76 S3        29.98R
WARRENSBURG    MOCLDY    66  55  68 CALM      29.98S
OSAGE BEACH    PTCLDY    70  54  56 S5        29.99S

$$
MOZ051-052-059>065-180500-
...EAST CENTRAL MISSOURI...

CITY           SKY/WX    TMP DP  RH WIND       PRES   REMARKS
ST LOUIS INTL  PTCLDY    66  55  67 E6        30.02S
SPIRIT OF STL  CLEAR     62  56  80 CALM      30.00F
ST CHARLES     PTCLDY    63  55  75 E5        30.01S

$$
MOZ072>076-082>087-097>100-106>115-180500-
...SOUTH CENTRAL AND SOUTHEAST MISSOURI...

CITY           SKY/WX    TMP DP  RH WIND       PRES   REMARKS
CAPE GIRARDEAU CLEAR     61  61 100 CALM      30.04R FOG
FARMINGTON     PTCLDY    63  57  82 S3        30.07S
POPLAR BLUFF   CLEAR     60  58  92 N3        30.02R FOG
WEST PLAINS    MOCLDY    63  59  87 CALM      30.03S

$$



USA.gov is the U.S. government's official web portal to all federal, state and local government web resources and services.